Logan, UT

5:27 PM MST on November 11, 2019 (GMT -0700)
Logan-Cache

Weather History for KLGU - August, 2019

Change the Weather History Date:

Wednesday, August 28, 2019

  Actual Average Record
Temperature  
Mean Temperature 66 °F -  
Max Temperature 91 °F 84 °F 98 °F (1981)
Min Temperature 42 °F 50 °F 37 °F (2004)
Growing Degree Days 16 (Base 50)    
Moisture  
Dew Point 35 °F    
Average Humidity 39    
Maximum Humidity 82    
Minimum Humidity 10    
Precipitation  
Precipitation 0.00 in - - ()
Sea Level Pressure  
Sea Level Pressure 29.99 in    
Wind  
Wind Speed 2 mph ()    
Max Wind Speed 8 mph    
Max Gust Speed -    
Visibility 10.0 miles    
Events      
Averages and records for this station are not official NWS values.
T = Trace of Precipitation, MM = Missing Value Source: Averaged Metar Reports

Daily Weather History Graph

Daily Weather History Graph

Search for Another Location

Airport or City:

Astronomy

Aug. 28, 2019 Rise Set
Actual Time 6:48 AM MDT 8:07 PM MDT
Civil Twilight 6:20 AM MDT 8:36 PM MDT
Nautical Twilight 5:45 AM MDT 9:10 PM MDT
Astronomical Twilight 5:08 AM MDT 9:47 PM MDT
Moon 4:22 AM MDT (8/28) 7:24 PM MDT (8/28)
Length of Visible Light 14h 16m
Length of Day
13h 18m
Waning Crescent, 4% of the Moon is Illuminated
Aug 28
Waning Crescent
Aug 30
New
Sep 5
First Quarter
Sep 13
Full
Sep 21
Last Quarter

Hourly Weather History & Observations

Time (MDT) Temp. Windchill Dew Point Humidity Pressure Visibility Wind Dir Wind Speed Gust Speed Precip Events Conditions
12:51 AM 52.0 °F - 37.0 °F 57% 30.02 in 10.0 mi Calm Calm - N/A   Clear
1:51 AM 52.0 °F - 37.0 °F 57% 30.02 in 10.0 mi Calm Calm - N/A   Clear
2:51 AM 48.9 °F - 39.0 °F 69% 30.02 in 10.0 mi Calm Calm - N/A   Clear
3:51 AM 51.1 °F - 36.0 °F 56% 30.01 in 10.0 mi Calm Calm - N/A   Clear
4:51 AM 44.1 °F 42.5 °F 37.0 °F 76% 30.03 in 10.0 mi NNE 3.5 mph - N/A   Clear
5:51 AM 42.1 °F - 37.0 °F 82% 30.03 in 10.0 mi Calm Calm - N/A   Clear
6:51 AM 46.0 °F 43.9 °F 36.0 °F 68% 30.04 in 10.0 mi SSE 4.6 mph - N/A   Clear
7:51 AM 48.9 °F - 37.9 °F 66% 30.06 in 10.0 mi Calm Calm - N/A   Clear
8:51 AM 55.0 °F - 37.9 °F 53% 30.06 in 10.0 mi NNE 3.5 mph - N/A   Clear
9:51 AM 62.1 °F - 34.0 °F 35% 30.05 in 10.0 mi WNW 5.8 mph - N/A   Clear
10:51 AM 68.0 °F - 35.1 °F 30% 30.06 in 10.0 mi Variable 4.6 mph - N/A   Clear
11:51 AM 73.0 °F - 34.0 °F 24% 30.03 in 10.0 mi Variable 4.6 mph - N/A   Clear
12:51 PM 78.1 °F - 34.0 °F 20% 30.01 in 10.0 mi Calm Calm - N/A   Clear
1:51 PM 84.0 °F - 34.0 °F 17% 29.98 in 10.0 mi Variable 4.6 mph - N/A   Clear
2:51 PM 88.0 °F - 25.0 °F 10% 29.96 in 10.0 mi Calm Calm - N/A   Clear
3:51 PM 89.1 °F - 27.0 °F 11% 29.93 in 10.0 mi Variable 5.8 mph - N/A   Clear
4:51 PM 89.1 °F - 27.0 °F 11% 29.92 in 10.0 mi Calm Calm - N/A   Clear
5:51 PM 89.1 °F - 27.0 °F 11% 29.91 in 10.0 mi Calm Calm - N/A   Clear
6:51 PM 88.0 °F - 28.0 °F 12% 29.89 in 10.0 mi SSW 3.5 mph - N/A   Clear
7:51 PM 84.9 °F - 30.0 °F 14% 29.90 in 10.0 mi SW 4.6 mph - N/A   Clear
8:51 PM 73.9 °F - 42.1 °F 32% 29.92 in 10.0 mi Calm Calm - N/A   Clear
9:51 PM 69.1 °F - 39.9 °F 35% 29.94 in 10.0 mi Calm Calm - N/A   Clear
10:51 PM 69.1 °F - 35.1 °F 29% 29.93 in 10.0 mi South 8.1 mph - N/A   Clear
11:51 PM 60.1 °F - 43.0 °F 53% 29.95 in 10.0 mi North 3.5 mph - N/A   Clear